Location: Chemnitz
(49.5500°N, 11.5830°E)
Time: 03:03:31
(UTC+01:00)

ISS - Pass Details

Date: 14 November 2017
Orbit: 402 x 407 km, 51.6° (Epoch: 24 November)

Event Time Altitude Azimuth Distance (km) Brightness Sun altitude
Exits shadow 05:45:14 36° 250° (WSW) 653 -3.3 -15.9°
Maximum altitude 05:46:01 45° 209° (SSW) 560 -3.3 -15.7°
Drops below altitude 10° 05:49:08 10° 135° (SE) 1,451 -0.2 -15.2°
Sets 05:51:15 0° 129° (SE) 2,307 1.2 -14.9°
